CAPE
1579 1167 919 916 965 966 886 933 1053 986 1377 1621 1656 1722 1966 2366 2430 2044 1764 1833 1582 1556 1745 1925 1593 1926 1667 1573 1412 1418 1334 1338 1420
1349 1110 909 801 817 898 830 609 820 989 1411 1685 1867 1895 2418 2521 2471 2147 1979 2185 1736 1055 1523 2030 2514 2299 1949 1758 1747 1666 1949 1615 1469
1160 1131 993 820 701 735 783 630 641 848 1088 1457 1908 1923 2189 2284 2421 2489 2582 2364 1986 2212 2382 2105 2642 2607 2400 2180 1981 1840 2020 2286 2096
1047 1170 1160 895 798 746 807 758 760 847 1287 1502 1811 2018 2071 2204 2395 2390 2283 2179 2306 2484 2511 2302 2167 2244 2524 1951 1989 2084 2240 2211 1997
912 1196 1254 909 797 794 904 962 877 1008 1301 1860 1986 2112 2478 2525 2567 2797 2628 2646 2488 2337 2263 2264 2427 2501 2279 1788 1912 1976 1987 1912 1741
1132 1387 1299 862 722 1077 1465 1630 1723 2057 2339 2221 2175 2445 2632 2831 3051 2178 2044 1813 1195 1212 1194 929 791 1511 2132 2107 1636 1648 1605 1592 1483
1133 1541 1424 1027 965 1320 1770 2129 2467 2619 2688 2555 2390 2432 2692 2901 2781 2525 2008 1211 973 807 845 615 577 633 731 974 1050 866 927 1064 1187
1097 1240 1558 1434 1112 1530 2040 2423 2727 2858 2801 2745 2397 2680 2889 2923 2597 1590 1354 1229 1021 788 660 587 488 421 434 327 89 10 234 428 347
1488 1137 1572 1640 1546 1562 2199 2652 2918 3061 3048 3222 2984 3099 2674 2268 1633 1554 1305 1106 784 388 214 179 155 119 73 12 0 0 0 0 4
1657 1725 1686 1794 1769 2155 2464 2743 2972 3069 2706 2433 2454 2261 1778 1554 1366 1135 951 496 215 116 61 38 5 5 7 20 12 0 0 0 14
1596 1831 1935 1956 1937 2257 2617 2695 2690 2556 2119 1667 1684 1328 1270 1095 1025 610 350 294 188 65 6 3 0 2 8 15 0 0 0 0 11
1532 1732 2169 2204 2084 2534 2535 2411 2469 2223 1736 1169 1182 760 616 302 221 313 287 201 70 0 2 7 8 10 13 16 0 0 0 0 1
1385 1686 2253 2453 2316 2375 2146 2065 1990 1559 966 344 9 7 64 274 262 163 141 20 1 2 8 11 7 11 12 0 8 0 0 0 0
1342 1748 2191 2254 2163 2122 1986 1504 1325 1000 559 185 267 223 138 65 29 9 15 0 5 8 16 13 12 14 15 6 0 0 0 0 0
1796 1999 2116 2049 2035 1973 1583 1277 1128 935 862 802 460 114 2 0 2 1 0 1 9 16 27 15 12 12 8 7 2 0 0 0 0
1925 2056 1845 1890 1989 1745 1339 1327 1003 1009 1134 578 174 33 10 4 5 6 6 4 14 22 19 10 7 0 0 0 0 0 0 0 0
1950 1907 2055 1564 1552 1356 1466 1374 1154 1224 446 286 177 93 8 4 2 3 2 5 6 3 1 0 0 0 0 0 0 0 0 0 0
1947 1836 1782 1953 1727 1303 1078 1188 1132 1091 528 120 115 32 10 12 3 1 1 2 2 0 0 0 0 0 0 0 0 0 0 0 0
2147 2203 2233 2254 2114 1835 1018 975 983 624 432 261 46 16 19 23 17 7 2 0 0 0 0 0 0 0 0 0 0 0 0 0 0
1833 2040 2123 2099 2020 1827 1008 976 714 514 414 516 201 16 21 11 0 0 3 0 0 0 0 0 0 0 0 0 0 0 0 0 0
CIN
-32 -55 -47 -43 -47 -41 -34 -9 -1 -0 -0 -0 -0 -0 -0 -0 -0 -0 -0 -0 -0 -0 -16 -19 -15 -0 -0 -0 -0 -0 -0 -0 -0
-24 -50 -45 -52 -51 -38 -40 -39 -10 -1 -0 -0 -0 -0 -0 -0 -0 -0 -0 -0 -8 -38 -32 -3 -0 -0 -0 -0 -0 -0 -0 -0 -0
-30 -36 -41 -46 -51 -41 -35 -27 -19 -8 -2 -0 -0 -0 -0 -0 -0 -0 -1 -0 -18 -0 -10 -20 -0 -0 -0 -0 -0 -0 -0 -0 -0
-38 -48 -32 -37 -41 -44 -37 -23 -13 -8 -2 -0 -0 -0 -0 -0 -0 -0 -2 -0 -0 -0 -0 -1 -2 -2 -0 -0 -0 -0 -0 -0 -0
-47 -39 -22 -30 -45 -46 -39 -28 -24 -29 -10 -0 -0 -0 -0 -0 -0 -0 -0 -0 -0 -0 -0 -0 -0 -0 -0 -0 -0 -0 -0 -0 -0
-69 -44 -32 -44 -49 -36 -22 -12 -7 -0 -0 -0 -0 -0 -0 -0 -0 -0 -0 -0 -9 -3 -0 -0 -0 -0 -0 -0 -0 -0 -0 -3 -5
-86 -74 -42 -41 -47 -20 -15 -11 -3 -0 -0 -0 -0 -0 -0 -0 -0 -0 -0 -16 -31 -45 -37 -30 -22 -15 -6 -0 -0 -0 -0 -0 -0
-94 -81 -45 -29 -46 -23 -8 -3 -1 -0 -0 -0 -0 -0 -0 -0 -0 -10 -22 -21 -27 -44 -57 -65 -65 -68 -50 -49 -118 -35 -76 -21 -33
-95 -77 -54 -42 -37 -29 -5 -5 -3 -0 -0 -0 -1 -0 -7 -12 -22 -34 -36 -36 -50 -99 -121 -135 -150 -163 -187 -39 -0 -0 -0 -0 -0
-83 -84 -54 -45 -35 -19 -10 -10 -11 -2 -16 -25 -13 -13 -24 -13 -14 -40 -79 -119 -157 -172 -196 -134 -0 -0 -0 -0 -0 -0 -0 -0 -0
-100 -87 -56 -44 -28 -23 -28 -30 -26 -21 -57 -93 -61 -60 -32 -25 -2 -48 -98 -145 -154 -210 -0 -0 -0 -0 -0 -0 -0 -0 -0 -0 -0
-171 -142 -71 -52 -49 -58 -69 -71 -58 -75 -83 -102 -49 -76 -82 -75 -59 -47 -52 -69 -206 -0 -0 -0 -0 -0 -0 -0 -0 -0 -0 -0 -0
-186 -175 -111 -101 -96 -88 -98 -91 -90 -121 -162 -216 -315 -41 -203 -138 -119 -81 -147 -106 -22 -0 -0 -0 -0 -0 -0 -0 -0 -0 -0 -0 -0
-240 -188 -147 -136 -139 -121 -100 -139 -126 -123 -159 -218 -126 -113 -99 -89 -19 -110 -272 -0 -145 -0 -0 -0 -0 -0 -0 -0 -0 -0 -0 -0 -0
-207 -172 -143 -128 -120 -100 -123 -132 -113 -99 -67 -32 -59 -144 -0 -0 -0 -0 -0 -0 -0 -0 -0 -0 -0 -0 -0 -0 -0 -0 -0 -0 -0
-151 -145 -179 -149 -97 -98 -112 -76 -98 -59 -16 -56 -120 -138 -12 -0 -0 -0 -0 -53 -0 -0 -0 -0 -0 -0 -0 -0 -0 -0 -0 -0 -0
-114 -137 -101 -173 -136 -129 -73 -48 -29 -0 -85 -107 -91 -99 -0 -0 -0 -0 -0 -0 -0 -0 -0 -0 -0 -0 -0 -0 -0 -0 -0 -0 -0
-77 -114 -116 -76 -74 -118 -115 -58 -25 -0 -51 -127 -93 -64 -0 -0 -0 -0 -0 -0 -0 -0 -0 -0 -0 -0 -0 -0 -0 -0 -0 -0 -0
-43 -34 -33 -16 -11 -24 -111 -98 -48 -64 -74 -83 -42 -0 -0 -0 -0 -0 -0 -0 -0 -0 -0 -0 -0 -0 -0 -0 -0 -0 -0 -0 -0
-69 -46 -28 -17 -9 -21 -112 -98 -148 -132 -113 -35 -63 -0 -152 -0 -0 -0 -0 -0 -0 -0 -0 -0 -0 -0 -0 -0 -0 -0 -0 -0 -0
Wind_Speed
13 13 12 13 13 13 13 14 14 13 14 13 13 12 12 9 8 7 6 6 4 4 3 4 6 8 9 9 8 8 8 7 8
12 13 12 13 13 13 14 14 14 12 13 12 12 12 10 9 8 6 4 3 2 3 2 3 6 7 8 8 9 9 8 8 9
10 13 12 12 13 13 13 13 13 12 12 12 11 11 10 9 7 6 5 7 6 6 2 3 4 7 7 8 8 9 9 8 8
12 15 14 12 12 12 12 11 11 12 11 11 11 11 10 8 5 6 5 5 3 2 3 3 1 3 6 5 7 8 9 9 8
11 15 15 14 13 13 13 12 12 12 12 12 11 11 10 9 8 9 10 8 6 5 4 2 2 2 4 5 6 5 6 7 6
12 16 17 16 16 15 14 13 12 12 12 11 11 11 10 10 10 8 7 7 7 6 5 4 4 4 4 3 2 3 4 5 5
13 15 17 16 17 16 15 14 13 12 12 11 11 11 12 11 10 10 9 7 6 6 5 3 3 3 2 3 3 3 3 3 4
12 15 17 17 16 15 15 14 13 13 13 12 11 11 11 11 10 10 9 7 5 5 4 5 3 2 2 0 1 8 9 5 4
12 16 18 18 17 17 15 14 14 14 13 13 12 12 13 12 10 11 9 7 5 5 5 4 4 4 4 1 6 8 8 9 4
11 13 16 16 18 16 15 15 15 15 14 13 12 12 11 10 9 9 10 8 6 5 4 4 3 3 2 5 6 10 9 9 5
10 11 13 15 14 14 14 15 15 15 14 13 13 15 13 10 8 8 7 8 6 5 3 4 4 3 3 5 7 12 11 10 4
9 9 10 10 11 12 14 15 16 17 17 12 11 13 13 8 7 7 6 5 6 4 4 5 5 5 5 5 6 11 12 11 5
5 7 8 10 11 13 14 15 17 18 17 14 11 13 12 12 11 5 9 4 5 4 5 4 6 6 6 3 6 11 11 11 6
4 6 9 11 13 13 15 16 18 18 16 13 8 5 7 8 6 8 11 4 4 5 5 6 6 6 5 5 5 7 8 9 6
5 7 8 10 11 12 15 16 16 15 14 11 11 12 12 10 4 3 7 8 5 5 6 7 5 5 5 5 4 4 8 5 6
6 7 7 6 7 10 12 16 15 14 11 12 12 12 11 9 9 5 6 8 7 6 7 5 7 6 4 4 3 4 8 3 0
5 5 7 8 9 9 9 10 13 11 12 13 15 14 13 12 11 10 9 7 8 8 7 6 5 4 3 4 3 3 3 1 5
5 7 7 9 9 8 9 9 11 11 13 14 14 13 11 9 7 8 7 6 4 5 3 2 5 4 3 2 3 6 6 6 5
5 7 9 9 8 9 9 10 11 10 12 14 14 12 9 8 8 9 8 7 6 12 9 8 9 11 6 7 10 7 3 1 3
2 6 7 8 8 8 9 11 10 10 11 14 14 13 13 10 10 10 8 8 8 9 4 8 7 6 7 10 11 6 3 2 4
Wind_Direction
183 178 174 166 169 164 166 170 171 177 175 185 186 187 194 199 197 203 206 196 220 205 193 220 218 212 224 214 215 216 211 216 224
191 180 170 160 166 169 168 176 183 182 174 180 180 183 185 186 193 219 195 168 211 339 303 282 208 213 213 222 215 217 216 228 206
194 177 167 159 166 170 171 176 177 185 182 180 180 180 183 182 182 187 181 190 198 239 279 253 247 222 211 213 214 215 219 231 207
188 176 170 162 163 169 171 177 173 177 178 174 184 184 174 162 170 173 160 173 179 152 148 207 205 216 228 217 218 218 211 216 226
184 175 166 162 160 163 163 166 165 165 175 174 179 168 166 162 166 174 161 158 151 144 85 99 100 135 191 194 224 232 233 238 248
173 178 170 167 162 166 169 166 167 166 172 177 165 170 171 161 164 156 132 126 120 107 93 71 67 60 30 41 75 205 213 252 253
176 189 174 175 171 174 173 173 171 173 171 170 160 176 162 160 161 144 140 132 132 127 119 118 107 81 68 56 66 57 46 50 34
185 179 183 183 183 180 177 172 171 175 165 162 161 166 154 155 142 132 134 131 129 124 136 122 124 121 85 36 313 30 351 344 336
184 184 188 189 186 184 174 173 173 171 162 161 158 156 154 147 147 139 132 130 129 125 123 105 99 113 115 76 66 14 6 340 323
197 194 191 195 189 180 177 173 170 165 164 155 151 147 143 146 146 144 139 135 136 133 129 117 104 94 101 79 69 25 15 350 324
197 198 192 188 188 176 167 171 168 161 150 149 148 146 142 142 156 143 142 144 142 148 158 151 136 124 113 115 67 32 19 346 318
198 183 180 183 182 165 164 166 159 156 151 144 140 139 128 136 145 152 142 158 139 147 163 160 145 116 124 113 83 37 21 345 304
187 176 160 160 155 155 161 161 161 156 147 150 161 156 157 159 157 177 125 185 153 161 192 157 122 146 121 73 112 55 28 359 311
174 173 158 155 157 165 160 161 159 154 155 173 192 182 157 156 160 148 112 173 186 187 191 140 146 145 129 108 33 78 43 14 307
149 152 149 165 163 165 158 170 167 170 184 183 168 158 135 121 104 147 140 149 179 181 175 154 159 149 183 140 117 63 85 36 20
138 143 153 156 164 161 172 178 180 192 179 158 162 153 144 145 151 165 141 162 182 194 204 183 183 178 157 129 116 131 140 149 144
145 168 158 168 170 173 169 178 188 172 144 163 165 160 159 158 162 158 156 175 194 205 189 184 160 155 147 119 115 83 24 108 175
200 172 181 184 169 171 175 181 180 164 162 164 170 158 154 158 144 148 171 205 193 202 107 37 163 140 129 126 102 69 50 12 7
202 184 179 188 188 157 168 177 178 173 165 168 154 152 152 158 166 171 177 172 166 49 39 55 62 53 52 96 88 119 142 93 341
206 204 194 195 196 179 178 182 170 172 167 175 167 161 163 172 183 181 179 181 174 164 102 72 76 90 81 61 118 132 139 216 257